[[{"header":{"parameterUnit":"m.s-1","parameterCategory":1,"la1":30.2991,"la2":30.254,"lo1":-89.0895,"lo2":-89.0444,"dy":0.0017,"dx":0.0017,"nx":28,"ny":28,"refTime":"2024-07-03T03:00:00:Z","depth":0,"parameterNumber":2,"parameterNumberName":"U-component_of_WINDS"},"data":[0,0,0,0,0,0,0,0,0,0,0,0,0,0,0,0,0,0,0,0,0,0,0,0,0,0,0,0,0,0,0,0,0,0,0,0,0,0,0,0,0,0,0,0,0,0,0,0,0,0,0,0,0,0,0,0,0,0,1.0699,1.07,0,1.0797,1.0798,1.0799,1.082,1.0819,1.0819,1.0818,1.0918,1.0921,1.0924,0,0,0,0,0,0,0,0,0,0,0,0,0,1.0528,1.0531,1.0699,1.07,1.0701,1.0796,1.0798,1.0799,1.082,1.0819,1.0818,1.0818,1.0917,1.0921,1.0924,0,0,0,0,0,0,0,0,0,0,0,0,0,1.0612,1.0532,1.0698,1.0723,1.0726,1.0796,1.0798,1.0799,1.082,1.0819,1.0818,1.0817,1.0915,1.092,1.0925,1.0977,0,0,1.094,1.0942,0,0,0,0,0,0,0,0,1.0607,1.0618,1.0718,1.0722,1.0725,1.0795,1.0774,1.0859,1.0821,1.0785,1.0818,1.0817,1.0878,1.0886,1.0906,1.0982,1.0986,1.0941,1.0944,1.0946,1.0947,0,0,0,0,0,0,0,1.0601,1.0614,1.0737,1.072,1.0724,1.0729,1.0739,1.079,1.0836,1.0788,1.0789,1.0801,1.0879,1.0902,1.0909,1.0987,1.0941,1.0945,1.0948,1.095,1.1109,1.111,0,0,0,0,0,0,1.0591,1.0609,1.0734,1.074,1.0662,1.0733,1.0745,1.0774,1.0835,1.0844,1.0802,1.0801,1.0894,1.0903,1.0912,1.0976,1.0946,1.095,1.0953,1.1108,1.1109,1.111,0,0,0,0,0,0,1.0588,1.0602,1.073,1.0675,1.0692,1.0737,1.0769,1.0776,1.0798,1.0846,1.0854,1.0816,1.0893,1.0905,1.0961,1.098,1.0953,1.0957,1.1106,1.1108,1.111,1.1105,0,0,0,0,0,0,1.0583,1.0601,1.0621,1.0676,1.0695,1.0777,1.077,1.0779,1.0807,1.0808,1.0862,1.0869,1.0893,1.0953,1.0965,1.0987,1.0961,1.1105,1.1107,1.1109,1.1104,1.1107,1.1109,0,0,0,0,0,1.0576,1.0616,1.0622,1.0637,1.0721,1.0778,1.0789,1.0816,1.0808,1.0829,1.086,1.0868,1.0976,1.0958,1.0973,1.0996,1.1103,1.1106,1.1109,1.1103,1.1106,1.1109,0,0,0,0,0,0,1.0563,1.0624,1.0631,1.069,1.0729,1.0782,1.0809,1.0819,1.086,1.0859,1.089,1.0902,1.0955,1.0981,1.096,1.1048,1.1039,1.1045,1.103,1.1033,1.1036,1.1028,1.0965,0,0,0,0,0,1.0567,1.0609,1.0659,1.0706,1.0725,1.0763,1.0789,1.0806,1.0848,1.0864,1.0899,1.0938,1.0981,1.1009,1.1051,1.1108,1.1119,1.113,1.1133,1.1135,1.1139,1.117,1.1175,1.112,1.112,1.112,0,0,1.0576,1.0614,1.0638,1.0704,1.0737,1.0778,1.0777,1.0822,1.0852,1.0871,1.0925,1.0951,1.0998,1.1053,1.108,1.1076,1.1157,1.1139,1.114,1.1143,1.1173,1.1179,1.1183,1.1122,1.1121,1.1121,0,0,1.0612,1.0646,1.0688,1.072,1.0769,1.0794,1.0804,1.0855,1.0874,1.0928,1.0943,1.098,1.1053,1.1085,1.1111,1.1159,1.1167,1.1172,1.1185,1.1215,1.1219,1.1223,1.1239,1.1245,1.1176,1.1176,1.1176,0,1.0617,1.068,1.0708,1.0752,1.078,1.0799,1.0841,1.0871,1.0931,1.0949,1.0945,1.1037,1.1069,1.1132,1.1144,1.1164,1.1176,1.1165,1.1216,1.1221,1.1225,1.124,1.1246,1.1176,1.1176,1.1176,1.1176,0,1.0683,1.0727,1.0755,1.0812,1.0843,1.0886,1.092,1.0948,1.0962,1.0988,1.1042,1.1082,1.1132,1.1148,1.1163,1.1213,1.1209,1.121,1.1202,1.123,1.1245,1.1251,1.1176,1.1176,1.1176,1.1176,0,0,1.0714,1.0785,1.0795,1.0821,1.0876,1.091,1.0953,1.1002,1.1025,1.1065,1.1102,1.1163,1.1164,1.1193,1.1211,1.1237,1.1271,1.1235,1.1237,1.124,1.1328,1.1326,1.1332,1.1277,1.1279,1.128,1.1323,0,1.0756,1.0834,1.086,1.0925,1.0965,1.0983,1.102,1.1057,1.1082,1.1119,1.1146,1.1189,1.1188,1.1205,1.1232,1.1261,1.1289,1.1259,1.1311,1.1312,1.1298,1.1341,1.1339,1.1379,1.133,1.1331,1.1332,0,1.0816,1.0857,1.0926,1.0974,1.0992,1.1026,1.1072,1.1108,1.115,1.1166,1.1198,1.1214,1.1259,1.1248,1.131,1.1288,1.1311,1.1329,1.1331,1.1336,1.1323,1.1346,1.1392,1.1397,1.1341,1.1341,1.134,0,1.0831,1.0903,1.0953,1.0975,1.1033,1.1056,1.1081,1.1122,1.115,1.119,1.1208,1.1253,1.1278,1.1312,1.1339,1.1329,1.1398,1.139,1.1412,1.1411,1.1425,1.1424,1.1474,1.1441,1.1441,1.1441,1.1441,0,1.0875,1.0916,1.096,1.0991,1.1037,1.1066,1.1111,1.1137,1.1173,1.1209,1.1227,1.126,1.1295,1.1332,1.1354,1.1401,1.1412,1.1426,1.1431,1.1424,1.1422,1.1439,1.1436,1.1443,1.1442,1.1442,1.1442,0,1.0899,1.093,1.0986,1.1036,1.105,1.1082,1.1125,1.1155,1.118,1.1224,1.1237,1.1276,1.1321,1.1351,1.1409,1.1423,1.1474,1.1479,1.146,1.1462,1.1482,1.148,1.1545,1.1554,1.1515,1.1516,1.1516,0,1.0924,1.0956,1.101,1.1035,1.1061,1.1101,1.1129,1.1159,1.1187,1.1237,1.1261,1.1307,1.1345,1.1415,1.1449,1.1492,1.1498,1.1518,1.1505,1.1496,1.1497,1.1495,1.1497,1.152,1.152,1.152,1.152,0,1.0966,1.098,1.102,1.1065,1.1098,1.1135,1.1172,1.1191,1.1228,1.1258,1.1304,1.1334,1.1392,1.1437,1.1484,1.1509,1.152,1.1524,1.1531,1.1524,1.1511,1.1517,1.1464,1.1522,1.1522,1.1522,1.1522,1.1522,1.0991,1.102,1.1062,1.1106,1.1137,1.1171,1.1201,1.123,1.1269,1.1319,1.1334,1.1381,1.1422,1.1485,1.1512,1.1548,1.1547,1.1558,1.156,1.1562,1.1562,1.1506,1.1557,1.1557,1.1557,1.1557,1.1557,0,1.1033,1.1061,1.1101,1.1152,1.1186,1.1194,1.1235,1.1263,1.1304,1.1341,1.1379,1.1431,1.1474,1.1511,1.1555,1.1578,1.1584,1.1589,1.1587,1.1592,1.1561,1.155,1.1583,1.1583,1.1583,1.1583,1.1583,1.1583,1.1059,1.1107,1.1126,1.119,1.1218,1.1265,1.1287,1.1318,1.1348,1.1405,1.1442,1.1465,1.1502,1.1549,1.1589,1.1599,1.1614,1.1617,1.1628,1.1598,1.1595,1.1592,1.1581,1.162,1.162,1.1656,1.1656,1.1657]},{"header":{"parameterUnit":"m.s-1","parameterCategory":1,"la1":30.2991,"la2":30.254,"lo1":-89.0895,"lo2":-89.0444,"dy":0.0017,"dx":0.0017,"nx":28,"ny":28,"refTime":"2024-07-03T03:00:00:Z","depth":0,"parameterNumber":3,"parameterNumberName":"V-component_of_WINDS"},"data":[0,0,0,0,0,0,0,0,0,0,0,0,0,0,0,0,0,0,0,0,0,0,0,0,0,0,0,0,0,0,0,0,0,0,0,0,0,0,0,0,0,0,0,0,0,0,0,0,0,0,0,0,0,0,0,0,0,0,5.7128,5.7127,0,5.7085,5.7085,5.7084,5.6991,5.6989,5.6987,5.6985,5.6944,5.6945,5.6946,0,0,0,0,0,0,0,0,0,0,0,0,0,5.7131,5.7132,5.7128,5.7127,5.7127,5.7085,5.7085,5.7084,5.6991,5.6989,5.6986,5.6984,5.6944,5.6945,5.6946,0,0,0,0,0,0,0,0,0,0,0,0,0,5.7113,5.7132,5.7128,5.7075,5.707,5.7085,5.7085,5.7084,5.6991,5.6989,5.6986,5.6983,5.6944,5.6945,5.6946,5.701,0,0,5.6949,5.695,0,0,0,0,0,0,0,0,5.7115,5.7113,5.7083,5.7079,5.7073,5.704,5.7071,5.7059,5.6992,5.7021,5.6985,5.6982,5.6979,5.6977,5.6975,5.7008,5.7006,5.6949,5.695,5.695,5.6951,0,0,0,0,0,0,0,5.7116,5.7115,5.7111,5.7083,5.7077,5.7055,5.7049,5.7068,5.7017,5.7019,5.7012,5.7008,5.6975,5.6974,5.6973,5.7006,5.6949,5.695,5.6951,5.6951,5.7089,5.7092,0,0,0,0,0,0,5.7124,5.7116,5.7112,5.711,5.7087,5.7057,5.705,5.7054,5.7016,5.7008,5.701,5.7004,5.6974,5.6972,5.6972,5.7044,5.695,5.6951,5.6952,5.7086,5.709,5.7093,0,0,0,0,0,0,5.7125,5.7125,5.7114,5.7111,5.7108,5.706,5.7064,5.7054,5.7053,5.701,5.7001,5.7018,5.6972,5.697,5.7001,5.7041,5.6952,5.6953,5.7082,5.7087,5.7091,5.7189,0,0,0,0,0,0,5.7125,5.7126,5.7149,5.7112,5.7108,5.7143,5.7067,5.7056,5.7055,5.7046,5.7015,5.7007,5.6969,5.7,5.7002,5.7041,5.6953,5.7079,5.7085,5.709,5.7182,5.7197,5.7209,0,0,0,0,0,5.7126,5.7179,5.715,5.715,5.7136,5.7146,5.7144,5.7098,5.7059,5.7082,5.7054,5.7008,5.7037,5.7004,5.7005,5.7045,5.7076,5.7083,5.7089,5.7176,5.7194,5.7209,0,0,0,0,0,0,5.7222,5.7173,5.7141,5.7183,5.7169,5.713,5.7158,5.7118,5.7116,5.7107,5.7051,5.7045,5.7084,5.7068,5.7032,5.7105,5.7049,5.7056,5.7114,5.7131,5.7144,5.7147,5.6954,0,0,0,0,0,5.7248,5.7259,5.7216,5.7258,5.7252,5.7207,5.7209,5.7175,5.7158,5.7152,5.7127,5.7113,5.7119,5.7124,5.7127,5.718,5.7172,5.7208,5.7222,5.7233,5.724,5.7266,5.7282,5.7115,5.7115,5.7115,0,0,5.7302,5.7277,5.7287,5.7276,5.7261,5.7275,5.7202,5.7219,5.7229,5.7155,5.7182,5.7163,5.7145,5.7187,5.7204,5.7174,5.7284,5.7241,5.7251,5.7251,5.7275,5.7291,5.7305,5.712,5.7119,5.7118,0,0,5.7407,5.7389,5.7422,5.7408,5.7386,5.7356,5.7364,5.733,5.7315,5.7341,5.7286,5.7297,5.7308,5.7297,5.7293,5.7395,5.7353,5.7397,5.7467,5.7494,5.7507,5.7518,5.7554,5.7568,5.7405,5.7405,5.7405,0,5.7477,5.7494,5.7444,5.7464,5.7461,5.7395,5.7428,5.7417,5.7398,5.7398,5.7365,5.7378,5.7361,5.7399,5.7424,5.7423,5.7431,5.74,5.7509,5.752,5.7529,5.7563,5.7577,5.741,5.741,5.7409,5.7409,0,5.7582,5.7594,5.7624,5.7606,5.7606,5.7633,5.7587,5.7594,5.7561,5.7534,5.7562,5.7539,5.7536,5.7543,5.751,5.7577,5.7559,5.7519,5.746,5.7552,5.7582,5.7595,5.7418,5.7416,5.7415,5.7413,0,0,5.7746,5.7699,5.7711,5.7702,5.7673,5.7682,5.7707,5.7703,5.771,5.7699,5.7719,5.773,5.7692,5.7687,5.7653,5.7677,5.7759,5.7633,5.7632,5.7657,5.7831,5.7861,5.7877,5.7731,5.7733,5.7735,5.7832,0,5.7844,5.7881,5.7837,5.7884,5.7895,5.7833,5.7854,5.7839,5.7815,5.7822,5.7796,5.7804,5.7754,5.7751,5.7771,5.7745,5.7793,5.7737,5.7749,5.775,5.7754,5.7893,5.7925,5.8017,5.7844,5.7846,5.7847,0,5.7963,5.7957,5.8005,5.7973,5.7976,5.7996,5.7989,5.7996,5.7979,5.796,5.7955,5.7914,5.7936,5.788,5.7911,5.7874,5.7876,5.7864,5.7866,5.7865,5.7804,5.7895,5.8045,5.8059,5.7866,5.7864,5.7863,0,5.8077,5.8081,5.811,5.8105,5.8069,5.8084,5.807,5.8049,5.805,5.8044,5.8044,5.8042,5.8041,5.8041,5.8,5.7963,5.8036,5.7976,5.8021,5.8022,5.8038,5.8038,5.8191,5.8041,5.8041,5.8041,5.804,0,5.8191,5.8223,5.8161,5.8179,5.8214,5.8163,5.8199,5.8178,5.816,5.8174,5.812,5.8134,5.808,5.8089,5.8058,5.8088,5.8088,5.8073,5.8065,5.8078,5.808,5.8078,5.8071,5.8044,5.8043,5.8043,5.8042,0,5.8324,5.8284,5.8312,5.8275,5.8267,5.8294,5.8262,5.8278,5.8251,5.8269,5.827,5.8228,5.8235,5.8195,5.8195,5.8174,5.822,5.82,5.8225,5.8219,5.8265,5.8262,5.8423,5.8441,5.828,5.8282,5.8283,0,5.8399,5.8422,5.8387,5.8392,5.838,5.8389,5.8389,5.8341,5.8343,5.8325,5.8343,5.8346,5.8346,5.8361,5.833,5.8331,5.831,5.8367,5.831,5.8323,5.8311,5.831,5.8312,5.8379,5.8381,5.8382,5.8384,0,5.8536,5.8515,5.8517,5.8512,5.8514,5.8508,5.8498,5.8506,5.8453,5.8459,5.8465,5.8465,5.8465,5.8469,5.8463,5.8449,5.8408,5.8402,5.8412,5.8425,5.8439,5.8432,5.8257,5.8398,5.8397,5.8396,5.8395,5.8394,5.8642,5.8659,5.8638,5.8642,5.8629,5.8622,5.8635,5.8609,5.8613,5.8609,5.858,5.8592,5.8574,5.8562,5.8552,5.8561,5.8534,5.8549,5.8553,5.8557,5.8565,5.8438,5.856,5.856,5.8559,5.8559,5.8558,0,5.8776,5.8759,5.8763,5.8751,5.8755,5.8715,5.8702,5.8708,5.8719,5.8705,5.8706,5.8714,5.8717,5.8687,5.8687,5.87,5.8681,5.8701,5.87,5.8697,5.8589,5.858,5.8717,5.8716,5.8716,5.8716,5.8716,5.8716,5.8846,5.8873,5.885,5.8871,5.8854,5.8864,5.8861,5.8854,5.8843,5.8853,5.8855,5.8836,5.8816,5.8813,5.8815,5.8806,5.8808,5.8835,5.882,5.872,5.8705,5.869,5.8681,5.8836,5.8836,5.8927,5.8927,5.8928]}]]